This demonstration page uses our WeatherBlox Daily Observations layout. Learn more.

Left ArrowRight Arrow

38.89511, -77.03637

Hourly Observations for July 27, 2015

Temp ( °F °C ) Dew Point ( °F °C ) Humidity (%) Winds ( mph kmh ) Pressure ( in mb ) Visibility ( mi km ) Precip ( " mm )
12:52 am 00:52 Mostly Cloudy 80 26.7 66 18.9 62 62 SSW 9 15 29.97 1015 10 16 N/A
1:52 am 01:52 Cloudy 80 26.7 68 20 67 67 SSW 9 15 29.96 1015 10 16 N/A
2:52 am 02:52 Cloudy 79 26.1 68 20 69 69 SSW 6 9 29.96 1015 10 16 N/A
3:52 am 03:52 Cloudy 80 26.7 68 20 67 67 SSW 5 7 29.96 1015 10 16 N/A
4:35 am 04:35 Cloudy with Thunderstorms 81 27 68 20 66 66 S 5 7 29.97 1015 10 16 N/A
4:52 am 04:52 Cloudy with Thunderstorms 80 26.7 66 18.9 62 62 WNW 6 9 29.99 1016 10 16 N/A
5:41 am 05:41 Cloudy with Light Rain 75 24 70 21 83 83 ESE 7 11 29.97 1015 10 16 0.11 2.79
5:52 am 05:52 Cloudy with Light Rain 76 24.4 70 21.1 82 82 SSE 9 15 29.98 1015 10 16 0.11 2.79
6:52 am 06:52 Cloudy 76 24.4 70 21.1 82 82 SSW 7 11 29.97 1015 10 16 N/A
7:52 am 07:52 Cloudy 76 24.4 70 21.1 82 82 SE 3 6 29.99 1016 10 16 N/A
8:52 am 08:52 Mostly Cloudy 78 25.6 71 21.7 79 79 SSE 5 7 30.00 1016 10 16 N/A
9:52 am 09:52 Mostly Cloudy 80 26.7 72 22.2 76 76 S 7 11 30.01 1016 10 16 N/A
10:52 am 10:52 Cloudy 81 27.2 72 22.2 74 74 SSE 7 11 30.01 1016 10 16 N/A
11:52 am 11:52 Mostly Cloudy 84 28.9 71 21.7 65 65 S 8 13 30.00 1016 10 16 N/A
12:52 pm 12:52 Mostly Cloudy 86 30 72 22.2 63 63 S 7 11 30.00 1016 10 16 N/A
1:52 pm 13:52 Mostly Cloudy 88 31.1 71 21.7 57 57 SE 3 6 29.98 1015 10 16 N/A
2:52 pm 14:52 Mostly Cloudy 90 32.2 73 22.8 58 58 S 7 11 29.97 1015 10 16 N/A
3:01 pm 15:01 Mostly Cloudy 88 31 72 22 59 59 VRB 3 6 29.97 1015 10 16 N/A
3:07 pm 15:07 Mostly Cloudy with Thunderstorms 88 31 72 22 59 59 SSW 5 7 29.97 1015 10 16 N/A
3:16 pm 15:16 Mostly Cloudy with Thunderstorms 88 31 72 22 59 59 SSE 5 7 29.97 1015 10 16 N/A
3:35 pm 15:35 Cloudy with Thunderstorms 84 29 73 23 70 70 ENE 7 11 29.97 1015 7 11 N/A
3:41 pm 15:41 Cloudy with Thunderstorms 82 28 75 24 79 79 N 9 15 30.00 1016 4 6 0.03 0.76
3:46 pm 15:46 Cloudy with Thunderstorms 81 27 75 24 84 84 NW 13 20 30.00 1016 1 2 N/A
3:52 pm 15:52 Cloudy with Strong Thunderstorms 80 26.7 75 23.9 85 85 WNW 21 33 30.00 1016 1 1 0.24 6.10
4:04 pm 16:04 Cloudy with Strong Thunderstorms 73 23 68 20 83 83 N 7 11 30.00 1016 3 5 N/A
4:11 pm 16:11 Cloudy with Strong Thunderstorms 73 23 66 19 78 78 N N/A 30.00 1016 7 11 0.57 14.48
4:18 pm 16:18 Cloudy with Thunderstorms 75 24 68 20 78 78 NNW 6 9 30.00 1016 8 13 0.59 14.99
4:32 pm 16:32 Mostly Cloudy 79 26 66 19 65 65 NNE 6 9 29.97 1015 10 16 N/A
4:52 pm 16:52 Mostly Cloudy 81 27.2 69 20.6 67 67 ESE 5 7 29.98 1015 10 16 0.59 14.99
5:52 pm 17:52 Partly Cloudy 84 28.9 69 20.6 61 61 N N/A 29.96 1015 10 16 N/A
6:52 pm 18:52 Partly Cloudy 85 29.4 69 20.6 59 59 E 3 6 29.97 1015 10 16 N/A
7:52 pm 19:52 Partly Cloudy 84 28.9 69 20.6 61 61 N 3 6 29.98 1015 10 16 N/A
8:52 pm 20:52 Partly Cloudy 82 27.8 73 22.8 74 74 SSE 3 6 29.98 1015 10 16 N/A
9:52 pm 21:52 Partly Cloudy 81 27.2 75 23.9 82 82 N N/A 30.00 1016 10 16 N/A
10:52 pm 22:52 Partly Cloudy 82 27.8 75 23.9 79 79 N N/A 30.00 1016 10 16 N/A
11:52 pm 23:52 Partly Cloudy 81 27.2 75 23.9 82 82 S 7 11 30.01 1016 10 16 N/A

Powered by AerisWeather